sat.trackr.live / text

‹ back to catalog

STARLINK-4017

NORAD 52682 · 2022-053AC

PAYLOAD ACTIVE UNKNOWN

§ Identity

Operator
Country
US
Launch date
2022-05-18
Launch site
AFETR
Launch vehicle
Mass (kg)
RCS (m²)

Purposes: comms

External: N2YO · Heavens-Above · Gunter

§ Orbital elements

Epoch: 2026-09-20T04:00:03.000096Z

Period
94.46 min
Inclination
53.1612°
Eccentricity
0.0000499
Mean motion
15.24494686 rev/d
Perigee alt
492.0 km
Apogee alt
492.6 km
Semi-major
6,870.4 km
B*
3.1978e-3
RAAN
349.2120°
Arg perigee
104.2411°
Mean anomaly
144.4978°
Rev number
583

§ Raw data

STARLINK-40171 52682U 22053AC  26263.16670139  .00080159  00000+0  31978-2 0  99992 52682  53.1612 349.2120 0000499 104.2411 144.4978 15.24494686  5831

JSON: /api/v1/satellites/52682 · /tle

For live sub-satellite position, see the globe view (requires WebGL).

§ Visibility from observer

Set your observer location to see the next 7 days of passes ≥ 10°. The values pass through the URL so the page stays shareable.

No JS? Fill the form by hand. The geolocation button needs JavaScript.